FW5359 Weather Reports


time (UTC)temp
F
wind
direction
speed
knots
gust
knots
rain 1hr
in
rain 24hr
in
rain mn
in
humidity
%
barometer
mb
20260503223312 77 81 2.6 7.0 0.00 0.00 0.00 40 1018.7
20260503222811 77 153 3.5 13.0 0.00 0.00 0.00 40 1018.8
20260503222544 77 115 3.5 13.0 0.00 0.00 0.00 40 1018.7
20260503221807 78 91 2.6 11.3 0.00 0.00 0.00 40 1018.9
20260503221539 78 86 2.6 7.8 0.00 0.00 0.00 40 1019.0
20260503221038 78 132 2.6 7.0 0.00 0.00 0.00 40 1019.0
20260503220305 78 200 2.6 8.7 0.00 0.00 0.00 39 1019.2
20260503215805 78 124 2.6 8.7 0.00 0.00 0.00 40 1019.3
20260503215304 78 199 1.7 7.8 0.00 0.00 0.00 40 1019.3
20260503214805 78 232 2.6 7.8 0.00 0.00 0.00 40 1019.4
20260503214535 78 184 2.6 7.8 0.00 0.00 0.00 40 1019.5
20260503214035 78 211 1.7 7.8 0.00 0.00 0.00 40 1019.7
20260503213305 78 190 1.7 7.8 0.00 0.00 0.00 40 1019.8
20260503211803 77 136 2.6 7.8 0.00 0.00 0.00 40 1019.8
20260503210801 77 121 2.6 7.8 0.00 0.00 0.00 40 1020.1
20260503210301 78 165 2.6 7.8 0.00 0.00 0.00 39 1020.0
20260503205800 77 153 2.6 7.8 0.00 0.00 0.00 41 1020.1
20260503204800 78 137 2.6 12.2 0.00 0.00 0.00 40 1020.3
20260503204300 78 152 1.7 7.8 0.00 0.00 0.00 40 1020.5
20260503203800 78 228 1.7 7.8 0.00 0.00 0.00 41 1020.7
20260503203254 78 114 2.6 7.8 0.00 0.00 0.00 41 1020.6
20260503202748 78 80 2.6 7.0 0.00 0.00 0.00 40 1020.7
20260503202512 79 114 1.7 7.0 0.00 0.00 0.00 41 1021.1
20260503201736 79 193 1.7 5.2 0.00 0.00 0.00 40 1021.1
20260503201230 78 228 1.7 7.0 0.00 0.00 0.00 41 1021.3
20260503200724 78 175 1.7 7.0 0.00 0.00 0.00 40 1021.4
20260503200218 77 109 1.7 7.0 0.00 0.00 0.00 39 1021.4
20260503195712 76 105 2.6 7.8 0.00 0.00 0.00 39 1021.6
20260503195205 76 111 2.6 9.6 0.00 0.00 0.00 40 1021.7
20260503194930 76 164 2.6 9.6 0.00 0.00 0.00 41 1021.8
20260503194154 76 154 2.6 8.7 0.00 0.00 0.00 39 1021.9
20260503193919 76 167 3.5 9.6 0.00 0.00 0.00 38 1021.9
20260503193142 76 155 2.6 9.6 0.00 0.00 0.00 41 1022.0
20260503192636 76 90 1.7 6.1 0.00 0.00 0.00 42 1021.9
20260503192130 76 138 2.6 7.8 0.00 0.00 0.00 38 1021.8
20260503191624 76 169 2.6 8.7 0.00 0.00 0.00 41 1022.0
20260503191120 76 147 1.7 8.7 0.00 0.00 0.00 42 1022.1
20260503190620 76 161 1.7 7.0 0.00 0.00 0.00 45 1022.1
20260503190350 76 230 2.6 7.8 0.00 0.00 0.00 46 1022.1
20260503185851 76 142 2.6 7.8 0.00 0.00 0.00 45 1022.3
20260503185120 76 221 2.6 7.0 0.00 0.00 0.00 45 1022.2
20260503184618 76 196 1.7 7.8 0.00 0.00 0.00 44 1022.2
20260503184118 76 158 1.7 7.8 0.00 0.00 0.00 42 1022.5
20260503183618 76 134 1.7 7.8 0.00 0.00 0.00 44 1022.5
20260503183117 75 166 1.7 7.8 0.00 0.00 0.00 46 1022.6
20260503182614 75 216 2.6 7.0 0.00 0.00 0.00 47 1022.7
20260503182114 74 98 3.5 7.0 0.00 0.00 0.00 48 1022.8
20260503181614 74 106 1.7 7.0 0.00 0.00 0.00 46 1022.9
20260503181114 74 121 1.7 7.8 0.00 0.00 0.00 47 1022.9
20260503180615 74 108 2.6 8.7 0.00 0.00 0.00 47 1023.1
20260503180113 74 188 2.6 9.6 0.00 0.00 0.00 46 1023.2
20260503175612 74 159 1.7 9.6 0.00 0.00 0.00 47 1023.3
20260503175346 74 117 2.6 7.8 0.00 0.00 0.00 46 1023.5
20260503174613 74 244 2.6 7.8 0.00 0.00 0.00 48 1023.5
20260503174111 75 146 1.7 7.8 0.00 0.00 0.00 47 1023.8
20260503173605 75 192 1.7 6.1 0.00 0.00 0.00 49 1023.8
20260503173059 75 169 1.7 6.1 0.00 0.00 0.00 49 1024.0
20260503172553 74 146 0.9 7.0 0.00 0.00 0.00 50 1024.0
20260503172046 74 251 1.7 7.0 0.00 0.00 0.00 49 1024.0
20260503171541 74 283 1.7 7.8 0.00 0.00 0.00 48 1024.1
20260503171035 74 163 2.6 7.8 0.00 0.00 0.00 51 1024.2
20260503170528 74 161 1.7 6.1 0.00 0.00 0.00 48 1024.3
20260503150520 70 160 1.7 6.1 0.00 0.00 0.00 57 1024.8
20260503131411 58 78 0.0 0.0 0.00 0.00 0.00 83 1023.9
20260503130904 57 78 0.0 0.0 0.00 0.00 0.00 85 1023.9
20260503130359 56 78 0.0 0.0 0.00 0.00 0.00 88 1023.9
20260503110641 49 78 0.0 0.0 0.00 0.00 0.00 90 1022.7
20260503110135 49 78 0.0 0.0 0.00 0.00 0.00 89 1022.6
20260503081513 51 78 0.0 0.0 0.00 0.00 0.00 88 1022.6
20260503081012 51 78 0.0 0.0 0.00 0.00 0.00 87 1022.5
20260503080513 51 78 0.0 0.0 0.00 0.00 0.00 87 1022.6
20260503080243 51 78 0.0 0.0 0.00 0.00 0.00 87 1022.7
20260503072739 51 78 0.0 0.0 0.00 0.00 0.00 86 1022.9
20260503072009 51 78 0.0 0.0 0.00 0.00 0.00 86 1023.0
20260503071740 52 78 0.0 0.0 0.00 0.00 0.00 86 1023.1
20260503071239 52 78 0.0 0.0 0.00 0.00 0.00 86 1023.2
20260503070737 52 78 0.0 0.0 0.00 0.00 0.00 86 1023.3
20260503054839 53 78 0.0 0.0 0.00 0.00 0.00 84 1023.3
20260503054606 53 78 0.0 0.0 0.00 0.00 0.00 84 1023.3
20260503053828 53 78 0.0 0.0 0.00 0.00 0.00 84 1023.3
20260503053553 54 78 0.0 0.0 0.00 0.00 0.00 84 1023.2
20260503052816 54 78 0.0 0.0 0.00 0.00 0.00 83 1023.2
20260503052310 54 78 0.0 0.0 0.00 0.00 0.00 83 1023.2
20260503051804 54 78 0.0 0.0 0.00 0.00 0.00 82 1023.2
20260503051258 54 78 0.0 0.0 0.00 0.00 0.00 82 1023.3
20260503050753 54 78 0.0 0.0 0.00 0.00 0.00 82 1023.2
20260503050245 54 78 0.0 0.0 0.00 0.00 0.00 82 1023.2
20260503045746 55 78 0.0 0.0 0.00 0.00 0.00 81 1023.1
20260503045516 55 78 0.0 0.0 0.00 0.00 0.00 82 1023.1
20260503044746 55 78 0.0 0.0 0.00 0.00 0.00 81 1023.2
20260503044246 55 78 0.0 0.0 0.00 0.00 0.00 81 1023.1
20260503043746 55 78 0.0 0.0 0.00 0.00 0.00 81 1023.1
20260503043245 55 78 0.0 0.0 0.00 0.00 0.00 80 1023.1
20260503042746 56 78 0.0 0.0 0.00 0.00 0.00 80 1023.0
20260503042519 56 78 0.0 0.0 0.00 0.00 0.00 79 1023.1
20260503041746 56 78 0.0 0.0 0.00 0.00 0.00 79 1023.2
20260503041245 56 78 0.0 0.0 0.00 0.00 0.00 78 1023.2
20260503041017 56 78 0.0 0.0 0.00 0.00 0.00 78 1023.2
20260503040245 57 78 0.0 0.0 0.00 0.00 0.00 78 1023.2
20260503035746 57 78 0.0 0.0 0.00 0.00 0.00 77 1023.0
20260503035246 57 78 0.0 0.0 0.00 0.00 0.00 77 1023.1
20260503034746 57 78 0.0 0.0 0.00 0.00 0.00 76 1023.0
20260503034245 58 78 0.0 0.0 0.00 0.00 0.00 75 1022.8
20260503033745 58 78 0.0 0.0 0.00 0.00 0.00 74 1022.8
20260503033517 58 78 0.0 0.0 0.00 0.00 0.00 74 1022.9
20260503032739 58 78 0.0 0.0 0.00 0.00 0.00 74 1022.9
20260503032233 59 78 0.0 0.0 0.00 0.00 0.00 72 1022.8
20260503031727 59 78 0.0 0.0 0.00 0.00 0.00 72 1022.8
20260503031221 60 78 0.0 0.0 0.00 0.00 0.00 70 1022.8
20260503030715 60 78 0.0 0.0 0.00 0.00 0.00 70 1022.7
20260503030209 60 78 0.0 0.0 0.00 0.00 0.00 69 1022.7
20260503025703 60 78 0.0 0.0 0.00 0.00 0.00 68 1022.7
20260503025157 61 78 0.0 0.0 0.00 0.00 0.00 67 1022.7
20260503024652 61 78 0.0 0.0 0.00 0.00 0.00 65 1022.5
20260503024416 61 78 0.0 0.0 0.00 0.00 0.00 65 1022.5
20260503023638 62 78 0.0 0.0 0.00 0.00 0.00 65 1022.3
20260503023130 62 78 0.0 0.0 0.00 0.00 0.00 64 1022.3
20260503022625 62 78 0.0 0.0 0.00 0.00 0.00 63 1022.3
20260503022118 63 78 0.0 0.0 0.00 0.00 0.00 62 1022.2
20260503021613 63 78 0.0 0.0 0.00 0.00 0.00 62 1022.2
20260503021339 63 78 0.0 0.9 0.00 0.00 0.00 61 1022.0
20260503020601 64 78 0.0 0.9 0.00 0.00 0.00 60 1021.9
20260503020055 64 78 0.0 0.0 0.00 0.00 0.00 60 1021.9
20260503015549 64 78 0.0 0.0 0.00 0.00 0.00 59 1021.7
20260503015043 65 78 0.0 0.0 0.00 0.00 0.00 58 1021.6
20260503014807 65 78 0.0 0.0 0.00 0.00 0.00 56 1021.5
20260503014031 66 78 0.0 0.0 0.00 0.00 0.00 56 1021.3
20260503013525 66 78 0.0 1.7 0.00 0.00 0.00 53 1021.3
20260503013019 66 78 0.0 1.7 0.00 0.00 0.00 53 1021.2
20260503012514 67 78 0.0 1.7 0.00 0.00 0.00 53 1021.2
20260503012007 67 78 0.9 1.7 0.00 0.00 0.00 52 1021.1
20260503011501 67 78 0.9 1.7 0.00 0.00 0.00 52 1021.1
20260503010955 68 78 0.9 1.7 0.00 0.00 0.00 52 1020.9
20260503010449 68 78 0.9 2.6 0.00 0.00 0.00 51 1021.0
20260503005943 68 78 0.9 3.5 0.00 0.00 0.00 51 1020.9
20260503005707 69 78 0.9 3.5 0.00 0.00 0.00 50 1020.9
20260503005203 69 78 0.9 3.5 0.00 0.00 0.00 50 1020.7
20260503004655 69 79 0.9 3.5 0.00 0.00 0.00 49 1020.7
20260503003919 70 78 0.9 3.5 0.00 0.00 0.00 49 1020.7
20260503003412 70 77 0.9 4.3 0.00 0.00 0.00 49 1020.6
20260503002906 70 76 0.9 4.3 0.00 0.00 0.00 48 1020.6
20260503002402 71 76 1.7 5.2 0.00 0.00 0.00 47 1020.5
20260503001855 71 76 1.7 6.1 0.00 0.00 0.00 47 1020.5
20260503001620 72 65 1.7 6.1 0.00 0.00 0.00 46 1020.6
20260503000843 72 81 2.6 6.1 0.00 0.00 0.00 46 1020.6
20260503000336 72 77 1.7 3.5 0.00 0.00 0.00 46 1020.7
20260502235831 72 69 1.7 4.3 0.00 0.00 0.00 46 1020.7
20260502235325 73 69 1.7 4.3 0.00 0.00 0.00 45 1020.7
20260502234820 73 69 1.7 5.2 0.00 0.00 0.00 44 1020.7
20260502234313 73 71 1.7 5.2 0.00 0.00 0.00 44 1020.7
20260502233301 73 54 1.7 5.2 0.00 0.00 0.00 45 1020.7
20260502232255 74 61 1.7 6.1 0.00 0.00 0.00 43 1020.7
20260502231753 74 60 1.7 6.1 0.00 0.00 0.00 44 1020.7
20260502231252 74 69 1.7 5.2 0.00 0.00 0.00 44 1020.6
20260502231024 74 57 2.6 7.8 0.00 0.00 0.00 44 1020.7
20260502230251 74 46 2.6 7.8 0.00 0.00 0.00 43 1020.9
20260502225751 74 71 1.7 6.1 0.00 0.00 0.00 43 1020.7
20260502225251 74 96 1.7 6.1 0.00 0.00 0.00 43 1020.7
20260502224749 73 80 2.6 6.1 0.00 0.00 0.00 44 1020.7
20260502224247 73 82 1.7 4.3 0.00 0.00 0.00 42 1020.7
20260502223747 73 80 1.7 5.2 0.00 0.00 0.00 44 1020.7